GFSSE_sfc_30mbdewp_246.txt.gz
Dewpoint
66 71 72 71 71 71 70 70 70 70 71 71 71 71 71 72 72 71 71 71 70 69 68 69 68 67 65 66 67 68 68 68 67 67 65 64 66 67 68 69 69 69 69
67 71 71 71 71 71 70 70 70 71 71 71 71 71 71 71 71 71 70 70 69 68 68 69 68 67 65 66 67 67 67 67 67 67 66 64 65 67 68 68 69 69 69
69 71 71 71 71 71 71 71 71 71 71 71 71 71 70 70 70 70 70 70 69 68 68 68 67 65 65 65 65 65 66 67 67 67 66 65 65 65 67 68 68 68 68
70 70 70 70 70 70 70 71 71 71 71 71 71 71 71 71 70 70 70 70 69 68 68 67 66 65 66 67 67 67 67 66 65 65 66 62 64 65 66 67 67 67 67
70 70 70 70 70 70 71 71 71 71 71 71 71 71 71 71 70 70 70 69 69 68 67 67 66 66 66 67 66 64 63 62 60 64 64 61 63 64 65 66 67 68 68
70 70 70 70 70 70 71 71 71 71 71 71 71 71 71 70 70 69 69 70 69 68 67 67 66 66 65 64 63 61 60 59 58 60 60 63 63 63 64 65 67 67 68
69 70 70 70 70 70 71 71 71 70 70 71 71 71 70 70 69 69 69 69 69 69 68 67 66 65 64 62 60 58 57 57 58 61 62 64 65 64 63 64 65 66 67
69 69 70 70 70 70 71 71 70 70 70 70 70 70 70 69 68 68 69 68 68 68 66 65 63 62 61 58 56 55 57 57 57 62 63 65 65 64 63 63 64 65 66
69 69 69 70 70 70 70 70 69 69 70 70 70 70 69 68 68 68 68 67 66 65 63 62 60 59 58 57 55 56 57 59 55 63 63 65 66 64 64 64 64 64 64
69 69 68 69 70 70 70 69 69 69 69 69 69 69 68 67 67 67 67 66 64 63 61 61 59 58 58 57 57 57 58 58 55 58 62 65 66 65 65 64 64 64 64
67 67 68 68 69 70 69 69 69 69 69 69 69 68 67 67 67 67 66 65 63 62 61 60 59 58 58 58 59 59 59 57 55 64 64 66 66 65 65 65 65 65 64
66 66 67 67 67 68 69 69 69 68 68 69 69 68 67 67 67 66 66 65 63 62 61 60 59 59 59 59 58 58 57 56 56 63 64 66 67 66 65 65 65 65 65
65 67 67 67 67 67 67 68 68 68 68 68 68 67 66 66 67 66 65 64 63 62 61 60 60 60 59 58 58 59 59 57 56 64 65 66 68 67 66 66 66 66 66
64 65 67 68 67 68 67 67 67 67 67 67 67 66 65 65 65 64 64 63 61 61 59 59 59 59 59 59 59 60 60 58 58 64 65 66 68 68 67 67 67 67 66
62 64 66 68 68 68 67 67 67 66 66 66 66 65 64 64 64 64 63 63 61 61 59 58 59 59 60 60 61 61 60 58 58 63 64 65 66 67 67 66 67 68 66
62 63 65 67 67 67 67 67 66 66 66 66 66 65 64 65 63 63 63 62 62 61 59 59 60 61 62 63 63 62 59 59 55 62 62 64 64 64 65 66 67 67 67
62 63 63 65 66 66 66 66 65 65 65 65 65 65 64 65 63 63 63 62 62 62 61 60 62 63 63 63 63 62 61 60 58 58 61 60 61 61 63 65 66 66 65
62 62 63 63 64 65 64 64 64 64 65 64 65 66 64 64 65 63 63 62 62 61 62 61 61 62 63 63 63 63 62 62 61 59 60 60 60 60 61 63 64 64 64
62 62 63 63 63 63 64 63 63 64 64 64 65 66 66 65 65 64 62 63 61 61 61 61 61 63 63 63 62 63 63 63 63 62 61 60 61 61 60 61 60 62 62
62 62 63 64 64 63 65 64 63 64 64 64 65 66 66 66 65 65 63 62 62 61 61 61 61 62 62 62 62 63 63 64 64 63 63 62 61 61 61 61 61 60 61
61 62 63 63 64 64 63 65 64 63 64 64 66 66 66 66 66 65 64 62 62 61 60 60 60 60 62 63 62 60 60 62 63 63 62 62 61 61 61 60 59 53 50
61 62 63 63 65 64 64 64 65 64 65 66 66 67 67 66 66 66 64 63 62 60 59 60 60 61 62 62 59 58 56 57 58 62 62 60 57 50 47 53 51 46 44
60 62 62 63 65 65 64 64 65 64 65 65 65 66 67 67 66 65 65 63 62 61 59 60 61 61 60 62 60 58 56 53 54 56 57 54 51 47 49 52 45 41 41
59 61 62 63 65 66 65 63 63 63 63 64 65 65 66 66 66 66 65 64 63 61 60 60 62 62 61 60 61 61 59 56 51 52 46 42 43 42 45 45 43 42 42
58 60 62 62 64 65 65 64 63 62 63 63 63 64 64 66 65 65 65 65 63 62 61 60 62 62 61 60 60 60 58 57 54 50 43 40 41 42 44 46 42 41 41
56 58 61 62 62 64 65 64 63 62 62 62 62 63 63 64 65 65 64 64 63 62 61 61 62 62 62 61 60 60 58 56 54 51 45 43 37 42 44 44 41 40 41

GFSSE_sfc_30mbdewp_249.txt.gz
Dewpoint
65 70 72 71 70 70 70 70 71 71 70 70 70 70 71 71 72 71 71 70 70 68 68 68 66 66 67 66 67 67 67 68 67 66 66 67 67 68 68 68 69 69 69
66 70 71 71 70 70 70 70 71 71 71 71 71 71 71 71 71 71 70 70 69 68 68 67 66 65 67 67 67 67 67 67 67 67 66 66 67 67 68 68 68 69 69
68 70 71 71 70 70 70 70 71 71 71 71 71 71 71 71 70 70 70 69 69 68 67 66 65 65 66 66 66 67 67 67 67 66 66 65 66 67 67 67 67 67 68
69 70 70 70 70 70 70 70 70 71 71 70 70 70 70 70 70 70 70 69 69 68 67 65 65 65 67 68 67 66 64 63 64 66 63 64 65 66 66 66 66 66 67
69 70 70 70 70 70 70 71 70 71 70 70 70 70 70 70 70 70 69 69 69 68 66 65 65 67 67 66 64 63 61 61 63 65 61 62 64 65 66 67 67 67 67
69 69 70 70 70 70 70 70 71 70 70 70 70 70 70 70 70 70 69 69 69 67 66 66 65 66 65 63 62 60 58 59 63 61 61 64 63 64 65 66 67 67 68
69 69 70 70 70 70 70 71 70 70 70 70 70 70 70 70 69 69 69 69 69 68 67 66 65 65 63 61 59 59 58 59 60 61 63 64 64 64 64 65 66 67 67
69 69 69 70 70 70 70 70 70 70 70 70 70 70 70 69 69 69 69 69 69 68 67 65 64 62 60 58 57 58 58 59 62 62 63 64 65 64 63 64 65 66 66
68 69 69 69 70 70 70 70 69 69 69 70 70 69 69 68 68 68 68 68 67 66 65 63 62 59 57 56 57 58 58 58 62 62 63 65 65 64 64 64 64 64 64
68 68 68 69 69 70 70 69 69 69 69 69 69 69 67 67 67 68 67 66 65 64 62 61 59 58 57 56 58 59 59 56 55 60 64 65 66 65 64 64 64 64 64
67 67 67 69 69 69 69 69 68 68 68 69 69 68 67 67 67 67 66 65 63 62 61 60 59 58 57 57 58 59 58 56 55 63 64 65 66 65 65 65 65 64 64
64 66 67 69 68 68 69 69 68 68 68 68 68 67 67 66 66 66 65 64 62 61 60 59 59 59 59 57 57 59 56 56 58 63 64 65 66 66 65 65 65 65 64
64 65 66 67 68 68 68 68 68 68 68 68 68 67 66 66 66 66 65 64 62 62 61 60 59 59 58 58 57 59 59 58 60 64 64 65 67 66 66 66 66 66 65
64 65 65 66 66 66 67 67 66 67 67 67 67 66 66 65 65 64 64 63 61 61 59 59 58 58 58 58 59 60 60 58 57 64 64 65 67 68 66 66 67 66 65
64 64 65 65 65 66 67 66 66 66 66 66 66 66 65 65 64 64 63 62 60 60 58 58 58 58 58 58 59 61 61 58 60 63 64 65 67 68 68 67 67 68 66
63 65 65 65 65 66 66 65 65 66 66 66 66 65 64 64 64 63 63 62 60 60 58 57 57 58 59 61 61 62 62 59 59 63 63 64 65 66 66 66 67 65 66
62 64 66 66 66 66 66 65 66 66 66 66 65 65 64 63 63 63 62 62 62 60 59 59 59 60 61 62 63 63 62 60 55 60 61 62 63 63 64 65 66 65 64
61 62 65 66 67 67 67 66 66 66 65 65 65 64 64 64 63 63 62 62 62 61 61 59 59 61 62 62 63 63 62 62 59 56 60 60 60 61 62 63 64 64 64
61 62 63 64 65 66 66 66 65 65 65 65 64 65 64 64 65 63 63 62 62 61 61 60 60 61 61 62 63 63 63 63 63 62 60 60 60 60 60 63 62 62 63
62 62 62 63 64 64 64 64 64 64 64 64 64 64 65 63 64 64 63 63 62 61 60 61 60 62 62 62 63 63 63 64 63 63 63 63 61 61 61 61 58 60 62
62 62 62 62 62 63 63 62 62 62 63 64 64 64 65 65 64 65 64 62 63 61 61 60 60 61 61 63 61 61 60 61 62 63 63 62 62 61 60 56 52 49 52
61 62 62 62 62 62 62 61 61 62 62 63 64 64 65 65 65 64 64 63 62 61 61 60 60 61 61 62 59 58 57 57 58 59 59 59 54 54 52 47 45 45 46
59 62 62 63 63 62 62 62 63 63 64 64 64 65 65 66 66 65 64 64 63 61 60 60 60 59 59 61 60 58 55 54 55 52 47 48 49 51 46 41 41 42 43
58 61 62 62 63 63 63 63 63 62 62 63 64 65 65 66 66 66 65 64 63 62 61 60 61 60 60 59 61 60 58 55 52 51 42 43 45 46 43 42 42 42 42
56 60 61 62 63 64 64 63 64 63 62 63 64 65 65 66 66 66 65 65 63 62 61 61 60 60 60 60 60 59 57 56 53 52 40 40 42 44 44 42 41 41 41
52 56 62 62 63 64 64 63 64 63 63 63 64 64 65 65 66 66 66 65 64 63 62 61 61 61 61 60 60 60 58 56 54 48 42 40 41 42 42 40 40 41 42

GFSSE_sfc_30mbdewp_255.txt.gz
Dewpoint
62 65 70 71 71 71 72 72 72 72 72 71 71 71 72 71 71 71 70 70 69 68 67 67 67 66 66 66 66 67 67 68 67 66 67 67 67 68 68 69 66 66 69
63 66 70 71 71 71 71 71 71 71 71 71 71 71 72 71 71 71 70 69 68 67 67 66 66 65 66 66 66 67 67 67 67 68 67 67 66 66 67 69 68 68 69
64 66 69 71 70 71 71 71 71 71 71 71 71 71 71 71 71 70 70 69 68 67 67 66 67 67 67 67 68 68 66 67 66 66 65 61 66 66 66 67 68 69 69
65 67 67 71 70 70 71 71 71 71 71 71 71 71 71 71 70 70 70 69 68 68 67 67 67 67 67 67 65 64 66 66 64 63 61 61 62 66 67 66 67 68 68
65 66 68 70 69 70 70 70 70 70 70 71 71 70 70 70 70 70 70 69 68 68 67 67 67 67 65 63 61 62 63 65 62 59 60 61 61 65 66 66 66 67 68
66 66 69 70 70 70 70 70 70 70 70 70 70 70 70 70 70 70 70 68 67 67 67 67 67 65 63 61 60 63 65 64 59 59 60 63 61 65 66 67 68 67 68
66 66 69 69 70 70 71 71 70 70 70 70 70 70 70 70 70 70 69 69 67 67 68 68 66 63 60 59 59 62 64 60 58 59 60 61 62 65 65 66 67 67 68
66 67 68 69 70 70 71 70 70 69 69 70 70 70 70 69 69 69 69 69 68 67 67 66 64 61 58 58 59 61 61 60 60 61 61 60 64 64 64 65 66 67 67
67 67 68 67 69 70 70 69 69 69 69 69 69 69 69 68 68 69 69 68 68 66 65 65 63 59 58 58 58 60 61 61 61 61 61 61 65 64 63 63 64 64 64
66 66 66 67 67 68 69 68 68 68 68 68 68 68 67 68 68 68 68 67 66 65 65 63 60 58 58 58 58 58 62 62 62 61 61 62 65 64 64 64 64 64 64
65 65 66 66 67 67 67 68 68 67 68 68 68 67 67 64 65 66 65 66 65 64 63 60 59 58 58 58 58 57 56 58 62 62 62 65 66 65 64 65 64 64 64
63 65 65 66 66 67 65 67 67 67 66 66 66 66 65 65 64 63 64 65 64 62 60 59 59 58 56 55 56 56 56 57 62 62 62 66 66 65 65 65 65 64 64
63 64 65 66 67 66 65 66 66 66 67 67 67 66 65 65 65 63 62 61 60 60 56 56 57 55 56 55 58 59 58 62 62 62 63 66 66 66 65 65 65 64 64
63 64 65 65 66 66 66 65 65 66 66 66 66 66 65 64 65 63 61 60 59 57 57 56 55 58 58 60 61 61 60 59 63 63 63 65 67 66 65 66 66 65 64
63 64 64 65 66 66 66 65 65 65 66 65 66 66 64 63 63 63 62 60 57 58 57 57 56 57 58 60 61 62 60 59 61 63 63 65 67 67 67 66 67 65 64
63 64 65 65 66 66 65 66 66 65 65 65 65 66 65 63 63 62 62 60 58 58 56 56 56 56 58 59 61 62 62 59 62 64 63 64 66 67 67 66 65 66 65
62 64 65 65 66 66 65 66 65 65 65 65 65 65 65 64 64 62 61 60 58 58 59 57 58 58 58 61 62 63 63 61 60 63 63 62 63 65 66 65 65 66 66
62 63 65 66 66 66 66 66 65 65 65 65 65 65 66 64 63 63 61 60 60 59 57 56 56 57 59 62 62 63 63 62 59 61 62 62 63 63 64 64 65 64 65
62 63 64 65 66 66 66 66 65 65 65 65 65 65 65 64 63 62 60 60 62 59 58 56 56 58 60 62 62 63 64 64 63 59 60 62 62 62 63 63 63 65 65
62 63 63 64 65 66 66 65 65 65 65 65 65 65 65 64 63 63 60 60 61 60 60 60 57 58 60 61 60 63 65 65 65 65 64 63 62 62 63 63 64 63 62
62 62 63 63 64 64 64 63 63 63 64 64 65 65 65 64 63 63 61 61 60 60 60 62 60 58 59 63 62 63 61 60 59 62 64 63 62 61 61 63 62 61 60
62 63 63 63 64 64 63 63 63 63 63 64 65 65 65 64 64 63 61 61 61 61 62 62 61 60 61 63 61 61 60 58 54 55 59 58 57 56 56 56 56 56 55
61 62 63 63 64 64 63 63 63 63 63 63 63 64 65 64 64 63 62 61 62 62 62 62 62 61 60 62 63 60 58 56 53 50 52 52 51 52 51 49 48 49 51
62 62 62 63 64 64 64 63 63 61 61 62 63 64 64 65 64 63 63 63 63 63 63 63 63 62 61 60 62 62 60 58 55 48 48 47 45 45 45 43 43 45 46
61 62 62 62 63 64 64 64 63 61 60 61 63 63 64 65 64 63 63 63 63 63 64 64 63 63 63 61 61 61 59 58 57 51 47 45 43 42 42 42 42 43 43
61 62 63 62 62 63 64 63 62 61 60 58 61 62 63 63 64 64 64 63 63 63 63 64 64 64 63 62 61 61 60 58 56 51 46 47 44 41 41 41 42 42 41

GFSSE_sfc_30mbdewp_258.txt.gz
Dewpoint
53 63 71 71 72 73 72 71 71 71 72 71 71 72 72 72 72 71 70 70 69 69 67 67 67 66 65 66 67 68 68 68 67 67 68 68 68 68 68 67 65 65 69
55 63 71 71 72 72 72 72 71 71 71 71 71 72 72 72 71 70 70 69 69 68 66 66 66 65 65 66 66 66 67 68 67 67 67 67 67 67 68 69 67 68 69
56 63 69 71 72 72 72 72 72 72 71 71 72 72 71 71 70 70 69 69 68 67 66 66 66 67 68 68 67 66 66 66 65 63 60 60 65 66 67 69 69 69 69
59 63 65 71 71 71 72 72 72 72 71 71 71 71 71 71 70 70 69 68 69 68 68 68 68 67 67 66 66 66 65 64 63 63 54 56 62 66 66 68 69 68 68
59 62 65 70 71 71 72 71 71 71 71 71 71 71 71 70 70 70 69 69 69 69 68 68 68 66 63 62 63 65 65 62 60 54 55 56 58 66 67 67 67 67 68
59 60 69 70 70 71 71 71 71 71 71 71 70 70 70 70 70 70 69 68 69 69 68 68 66 64 60 61 65 64 63 60 60 55 57 58 60 66 66 67 68 68 68
59 60 68 69 70 71 71 71 71 71 70 70 70 70 70 70 70 70 69 68 69 69 68 67 65 62 59 61 65 65 61 59 57 56 55 57 62 65 66 67 67 67 67
60 62 66 69 70 70 71 70 70 70 70 70 70 70 70 70 70 70 69 68 68 69 68 65 63 60 59 60 63 63 59 59 59 58 56 58 64 64 64 66 67 67 67
63 64 65 65 68 70 70 69 69 69 69 69 69 69 69 69 69 69 69 68 68 68 66 64 61 59 58 60 62 61 60 60 60 59 56 58 65 63 63 63 64 64 65
63 63 63 62 63 66 68 68 68 68 68 69 69 69 68 68 69 68 68 68 67 66 65 63 59 58 58 58 61 61 61 61 60 59 56 60 65 64 64 64 63 63 63
63 63 62 62 61 63 63 67 68 68 68 68 68 67 66 60 64 66 63 67 66 65 64 61 59 58 58 58 58 61 61 58 60 58 57 65 66 64 64 64 64 63 63
61 62 61 62 63 64 62 65 64 64 64 63 62 64 58 58 57 56 63 65 65 64 62 59 58 58 56 50 53 55 55 58 59 59 59 66 66 64 64 64 64 63 63
60 60 61 62 63 63 61 63 61 61 61 60 61 61 57 59 59 58 60 60 60 61 55 55 55 50 50 49 50 53 56 60 58 58 62 66 66 65 65 64 64 63 64
59 60 60 61 63 64 61 62 61 60 60 60 61 61 60 60 60 56 54 53 54 53 51 51 50 52 54 54 56 57 57 56 58 58 62 66 67 66 65 65 64 63 64
57 60 60 61 63 63 62 61 62 61 62 61 61 62 60 57 58 57 54 53 52 51 53 51 51 53 54 58 59 58 57 56 59 58 59 65 67 66 66 66 65 64 64
57 60 61 61 63 63 62 62 62 62 62 63 62 62 61 58 59 58 56 54 51 52 51 51 51 53 54 56 59 60 59 56 59 60 59 63 66 67 67 67 66 65 65
58 59 61 62 63 64 63 62 63 63 62 63 62 62 62 60 60 57 56 54 52 52 52 52 54 55 57 58 59 61 59 58 58 60 59 59 64 66 67 66 66 66 66
59 60 62 62 64 64 63 63 63 62 63 63 62 63 63 62 60 59 56 55 53 53 54 52 53 54 58 59 59 59 59 58 58 60 58 59 60 61 64 65 65 66 66
58 60 62 63 63 64 64 63 63 63 63 63 63 63 64 63 61 58 55 55 56 54 52 51 52 54 58 59 59 59 60 60 61 58 60 62 62 61 61 64 64 65 65
57 61 62 64 64 66 65 65 64 63 64 63 63 63 64 63 62 60 55 55 57 53 53 52 52 56 58 59 57 59 62 65 65 63 61 62 62 63 62 62 64 64 63
57 61 62 63 65 65 65 64 63 63 63 63 64 64 64 63 63 61 56 57 58 53 53 55 54 57 59 60 57 61 63 64 64 65 65 64 63 63 64 64 64 62 61
57 61 62 62 63 66 65 64 63 62 62 64 65 65 65 64 63 61 58 57 58 54 56 59 56 54 58 61 58 60 59 58 59 61 61 60 61 62 62 61 61 60 58
57 61 62 62 63 64 64 63 62 62 64 64 64 65 65 65 64 62 60 58 59 57 57 61 61 55 55 60 60 57 55 54 56 57 55 55 57 56 55 53 53 54 54
57 60 62 62 62 63 63 61 61 61 62 62 63 64 64 65 65 63 61 60 60 60 59 61 62 58 57 59 61 60 59 56 55 53 51 48 50 49 48 48 48 49 49
55 58 62 62 62 62 63 61 61 61 61 60 61 62 64 64 65 64 63 62 62 62 62 63 62 63 60 58 59 59 60 60 58 53 51 47 45 45 44 44 46 46 46
46 58 61 62 62 63 63 63 63 62 60 59 60 61 63 63 65 65 64 64 64 63 63 63 64 63 62 61 58 59 59 58 57 54 52 51 49 44 43 43 44 43 44